Terminal Aerodrome Forecast
Issued by NWS

Home | Current Version | Previous Version | Text Only | Print | Product List | Glossary On
Versions: 1 2 3 4 5 6 7 8 9 10 11 12 13 14 15 16 17 18 19
000
FTUS43 KPAH 171036 AAB
TAFCGI
TAF AMD
KCGI 171036Z 1711/1806 VRB03KT 4SM BR SCT250
     FM171300 13006KT 6SM BR BKN080
     FM171500 16010KT P6SM SCT060 BKN090
     FM171900 18015G25KT P6SM SCT030 OVC060
     FM180200 19020G30KT P6SM VCSH SCT015 OVC030=

USA.gov is the U.S. government's official web portal to all federal, state and local government web resources and services.